Time,TemperatureF,DewpointF,PressureIn,WindDirection,WindDirectionDegrees,WindSpeedMPH,WindSpeedGustMPH,Humidity,HourlyPrecipIn,Conditions,Clouds,dailyrainin,SoftwareType,DateUTC
2013-02-18 00:00:00,7.0,0.0,29.88,North,360,5.0,17.0,74,0.00,,,0.00,Rainwise IP-100,2013-02-18 05:00:00,
2013-02-18 00:05:00,7.0,0.0,29.90,West,270,7.0,17.0,73,0.00,,,0.00,Rainwise IP-100,2013-02-18 05:05:00,
2013-02-18 00:10:00,7.0,0.0,29.90,North,360,3.0,16.0,73,0.00,,,0.00,Rainwise IP-100,2013-02-18 05:10:00,
2013-02-18 00:15:00,7.0,0.0,29.90,WNW,292,1.0,13.0,74,0.00,,,0.00,Rainwise IP-100,2013-02-18 05:15:00,
2013-02-18 00:20:00,7.0,0.0,29.90,WSW,247,2.0,20.0,74,0.00,,,0.00,Rainwise IP-100,2013-02-18 05:20:00,
2013-02-18 00:25:00,7.0,0.0,29.90,ENE,67,1.0,15.0,74,0.00,,,0.00,Rainwise IP-100,2013-02-18 05:25:00,
2013-02-18 00:30:00,7.0,0.0,29.90,NNW,337,1.0,15.0,74,0.00,,,0.00,Rainwise IP-100,2013-02-18 05:30:00,
2013-02-18 00:35:00,7.0,0.0,29.91,SSW,202,1.0,16.0,74,0.00,,,0.00,Rainwise IP-100,2013-02-18 05:35:00,
2013-02-18 00:40:00,7.0,4.0,29.91,West,270,4.0,8.0,75,0.00,,,0.00,Rainwise IP-100,2013-02-18 05:40:00,
2013-02-18 00:45:00,7.0,4.0,29.91,WNW,292,0.0,20.0,75,0.00,,,0.00,Rainwise IP-100,2013-02-18 05:45:00,
2013-02-18 00:50:00,7.0,4.0,29.91,WNW,292,3.0,10.0,75,0.00,,,0.00,Rainwise IP-100,2013-02-18 05:50:00,
2013-02-18 00:55:00,7.0,4.0,29.91,NE,45,2.0,9.0,75,0.00,,,0.00,Rainwise IP-100,2013-02-18 05:55:00,
2013-02-18 01:00:00,7.0,0.0,29.91,WNW,292,5.0,14.0,74,0.00,,,0.00,Rainwise IP-100,2013-02-18 06:00:00,
2013-02-18 01:05:00,6.0,0.0,29.92,SE,135,1.0,13.0,74,0.00,,,0.00,Rainwise IP-100,2013-02-18 06:05:00,
2013-02-18 01:10:00,6.0,0.0,29.92,West,270,0.0,12.0,74,0.00,,,0.00,Rainwise IP-100,2013-02-18 06:10:00,
2013-02-18 01:15:00,6.0,4.0,29.92,West,270,3.0,10.0,75,0.00,,,0.00,Rainwise IP-100,2013-02-18 06:15:00,
2013-02-18 01:20:00,6.0,4.0,29.92,NE,45,2.0,7.0,75,0.00,,,0.00,Rainwise IP-100,2013-02-18 06:20:00,
2013-02-18 01:25:00,6.0,0.0,29.92,ENE,67,1.0,9.0,74,0.00,,,0.00,Rainwise IP-100,2013-02-18 06:25:00,
2013-02-18 01:30:00,6.0,0.0,29.92,North,360,3.0,13.0,74,0.00,,,0.00,Rainwise IP-100,2013-02-18 06:30:00,
2013-02-18 01:35:00,6.0,0.0,29.93,NNE,22,4.0,10.0,74,0.00,,,0.00,Rainwise IP-100,2013-02-18 06:35:00,
2013-02-18 01:40:00,6.0,4.0,29.93,ESE,112,1.0,12.0,76,0.00,,,0.00,Rainwise IP-100,2013-02-18 06:40:00,
2013-02-18 01:45:00,6.0,4.0,29.93,West,270,1.0,10.0,76,0.00,,,0.00,Rainwise IP-100,2013-02-18 06:45:00,
2013-02-18 01:50:00,6.0,4.0,29.93,NNE,22,3.0,11.0,76,0.00,,,0.00,Rainwise IP-100,2013-02-18 06:50:00,
2013-02-18 01:55:00,6.0,4.0,29.94,NE,45,3.0,10.0,75,0.00,,,0.00,Rainwise IP-100,2013-02-18 06:55:00,
2013-02-18 02:00:00,6.0,4.0,29.94,West,270,5.0,12.0,75,0.00,,,0.00,Rainwise IP-100,2013-02-18 07:00:00,
2013-02-18 02:05:00,6.0,4.0,29.94,WNW,292,4.0,9.0,75,0.00,,,0.00,Rainwise IP-100,2013-02-18 07:05:00,
2013-02-18 02:10:00,6.0,4.0,29.94,NE,45,4.0,13.0,76,0.00,,,0.00,Rainwise IP-100,2013-02-18 07:10:00,
2013-02-18 02:12:00,6.0,4.0,29.94,East,90,8.0,9.0,76,0.00,,,0.00,Rainwise IP-100,2013-02-18 07:12:00,
2013-02-18 02:17:00,5.0,4.0,29.94,NE,45,6.0,15.0,76,0.00,,,0.00,Rainwise IP-100,2013-02-18 07:17:00,
2013-02-18 02:22:00,6.0,4.0,29.94,NW,315,1.0,16.0,76,0.00,,,0.00,Rainwise IP-100,2013-02-18 07:22:00,
2013-02-18 02:27:00,5.0,4.0,29.94,West,270,15.0,15.0,76,0.00,,,0.00,Rainwise IP-100,2013-02-18 07:27:00,
2013-02-18 02:32:00,6.0,4.0,29.96,North,360,2.0,21.0,75,0.00,,,0.00,Rainwise IP-100,2013-02-18 07:32:00,
2013-02-18 02:37:00,5.0,4.0,29.96,West,270,13.0,13.0,75,0.00,,,0.00,Rainwise IP-100,2013-02-18 07:37:00,
2013-02-18 02:42:00,5.0,4.0,29.97,NE,45,0.0,13.0,75,0.00,,,0.00,Rainwise IP-100,2013-02-18 07:42:00,
2013-02-18 02:47:00,5.0,4.0,29.97,ENE,67,2.0,12.0,76,0.00,,,0.00,Rainwise IP-100,2013-02-18 07:47:00,
2013-02-18 02:52:00,5.0,0.0,29.97,NE,45,2.0,13.0,74,0.00,,,0.00,Rainwise IP-100,2013-02-18 07:52:00,
2013-02-18 02:57:00,5.0,0.0,29.97,West,270,3.0,15.0,74,0.00,,,0.00,Rainwise IP-100,2013-02-18 07:57:00,
2013-02-18 03:02:00,5.0,0.0,29.97,West,270,1.0,13.0,74,0.00,,,0.00,Rainwise IP-100,2013-02-18 08:02:00,
2013-02-18 03:07:00,5.0,4.0,29.97,East,90,6.0,6.0,75,0.00,,,0.00,Rainwise IP-100,2013-02-18 08:07:00,
2013-02-18 03:12:00,5.0,4.0,29.98,NW,315,1.0,12.0,75,0.00,,,0.00,Rainwise IP-100,2013-02-18 08:12:00,
2013-02-18 03:17:00,5.0,4.0,29.98,NW,315,5.0,8.0,75,0.00,,,0.00,Rainwise IP-100,2013-02-18 08:17:00,
2013-02-18 03:22:00,5.0,0.0,29.99,West,270,6.0,9.0,74,0.00,,,0.00,Rainwise IP-100,2013-02-18 08:22:00,
2013-02-18 03:27:00,5.0,0.0,29.99,ENE,67,3.0,12.0,74,0.00,,,0.00,Rainwise IP-100,2013-02-18 08:27:00,
2013-02-18 03:32:00,5.0,0.0,29.99,West,270,5.0,7.0,74,0.00,,,0.00,Rainwise IP-100,2013-02-18 08:32:00,
2013-02-18 03:37:00,5.0,0.0,29.99,NNW,337,0.0,9.0,74,0.00,,,0.00,Rainwise IP-100,2013-02-18 08:37:00,
2013-02-18 03:42:00,5.0,0.0,30.00,NE,45,5.0,11.0,74,0.00,,,0.00,Rainwise IP-100,2013-02-18 08:42:00,
2013-02-18 03:45:00,5.0,4.0,30.00,NE,45,1.0,10.0,75,0.00,,,0.00,Rainwise IP-100,2013-02-18 08:45:00,
2013-02-18 03:49:00,5.0,4.0,30.00,NNE,22,1.0,7.0,75,0.00,,,0.00,Rainwise IP-100,2013-02-18 08:49:00,
2013-02-18 03:50:00,5.0,4.0,30.00,West,270,0.0,7.0,75,0.00,,,0.00,Rainwise IP-100,2013-02-18 08:50:00,
2013-02-18 03:55:00,5.0,4.0,30.00,NW,315,1.0,10.0,75,0.00,,,0.00,Rainwise IP-100,2013-02-18 08:55:00,
2013-02-18 04:00:00,5.0,4.0,30.00,NE,45,4.0,7.0,75,0.00,,,0.00,Rainwise IP-100,2013-02-18 09:00:00,
2013-02-18 04:05:00,5.0,4.0,30.00,NE,45,6.0,11.0,76,0.00,,,0.00,Rainwise IP-100,2013-02-18 09:05:00,
2013-02-18 04:10:00,5.0,4.0,30.00,NE,45,1.0,13.0,76,0.00,,,0.00,Rainwise IP-100,2013-02-18 09:10:00,
2013-02-18 04:15:00,5.0,4.0,30.01,WNW,292,1.0,9.0,76,0.00,,,0.00,Rainwise IP-100,2013-02-18 09:15:00,
2013-02-18 04:20:00,5.0,4.0,30.01,North,360,4.0,10.0,76,0.00,,,0.00,Rainwise IP-100,2013-02-18 09:20:00,
2013-02-18 04:25:00,5.0,4.0,30.01,WNW,292,3.0,8.0,76,0.00,,,0.00,Rainwise IP-100,2013-02-18 09:25:00,
2013-02-18 04:30:00,5.0,4.0,30.01,NNE,22,4.0,8.0,76,0.00,,,0.00,Rainwise IP-100,2013-02-18 09:30:00,
2013-02-18 04:35:00,5.0,4.0,30.02,NNE,22,0.0,5.0,76,0.00,,,0.00,Rainwise IP-100,2013-02-18 09:35:00,
2013-02-18 04:40:00,5.0,4.0,30.02,NNE,22,0.0,3.0,76,0.00,,,0.00,Rainwise IP-100,2013-02-18 09:40:00,
2013-02-18 04:45:00,5.0,4.0,30.02,WSW,247,4.0,7.0,77,0.00,,,0.00,Rainwise IP-100,2013-02-18 09:45:00,
2013-02-18 04:50:00,5.0,4.0,30.02,NE,45,1.0,5.0,76,0.00,,,0.00,Rainwise IP-100,2013-02-18 09:50:00,
2013-02-18 04:55:00,5.0,4.0,30.03,East,90,1.0,4.0,75,0.00,,,0.00,Rainwise IP-100,2013-02-18 09:55:00,
2013-02-18 05:00:00,5.0,4.0,30.03,NE,45,2.0,8.0,75,0.00,,,0.00,Rainwise IP-100,2013-02-18 10:00:00,
2013-02-18 05:05:00,5.0,4.0,30.03,West,270,1.0,6.0,75,0.00,,,0.00,Rainwise IP-100,2013-02-18 10:05:00,
2013-02-18 05:10:00,4.0,0.0,30.03,West,270,0.0,1.0,76,0.00,,,0.00,Rainwise IP-100,2013-02-18 10:10:00,
2013-02-18 05:15:00,4.0,0.0,30.04,West,270,4.0,4.0,77,0.00,,,0.00,Rainwise IP-100,2013-02-18 10:15:00,
2013-02-18 05:20:00,4.0,0.0,30.04,NE,45,4.0,5.0,78,0.00,,,0.00,Rainwise IP-100,2013-02-18 10:20:00,
2013-02-18 05:25:00,4.0,0.0,30.04,NE,45,0.0,4.0,79,0.00,,,0.00,Rainwise IP-100,2013-02-18 10:25:00,
2013-02-18 05:30:00,4.0,0.0,30.04,NE,45,0.0,9.0,78,0.00,,,0.00,Rainwise IP-100,2013-02-18 10:30:00,
2013-02-18 05:35:00,4.0,0.0,30.04,NE,45,1.0,5.0,77,0.00,,,0.00,Rainwise IP-100,2013-02-18 10:35:00,
2013-02-18 05:40:00,4.0,0.0,30.04,NNE,22,2.0,4.0,78,0.00,,,0.00,Rainwise IP-100,2013-02-18 10:40:00,
2013-02-18 05:45:00,4.0,0.0,30.05,SW,225,0.0,6.0,76,0.00,,,0.00,Rainwise IP-100,2013-02-18 10:45:00,
2013-02-18 05:50:00,4.0,0.0,30.05,NE,45,5.0,13.0,77,0.00,,,0.00,Rainwise IP-100,2013-02-18 10:50:00,
2013-02-18 05:55:00,4.0,0.0,30.05,NE,45,6.0,9.0,78,0.00,,,0.00,Rainwise IP-100,2013-02-18 10:55:00,
2013-02-18 06:00:00,4.0,0.0,30.05,WSW,247,5.0,8.0,77,0.00,,,0.00,Rainwise IP-100,2013-02-18 11:00:00,
2013-02-18 06:05:00,4.0,0.0,30.06,West,270,4.0,9.0,78,0.00,,,0.00,Rainwise IP-100,2013-02-18 11:05:00,
2013-02-18 06:10:00,4.0,0.0,30.06,West,270,1.0,9.0,77,0.00,,,0.00,Rainwise IP-100,2013-02-18 11:10:00,
2013-02-18 06:15:00,4.0,0.0,30.06,NE,45,2.0,9.0,76,0.00,,,0.00,Rainwise IP-100,2013-02-18 11:15:00,
2013-02-18 06:20:00,4.0,0.0,30.06,NW,315,1.0,5.0,77,0.00,,,0.00,Rainwise IP-100,2013-02-18 11:20:00,
2013-02-18 06:25:00,4.0,0.0,30.06,North,360,0.0,11.0,76,0.00,,,0.00,Rainwise IP-100,2013-02-18 11:25:00,
2013-02-18 06:30:00,4.0,0.0,30.06,WNW,292,0.0,13.0,76,0.00,,,0.00,Rainwise IP-100,2013-02-18 11:30:00,
2013-02-18 06:35:00,4.0,0.0,30.06,NNE,22,0.0,14.0,76,0.00,,,0.00,Rainwise IP-100,2013-02-18 11:35:00,
2013-02-18 06:40:00,4.0,0.0,30.06,NW,315,5.0,10.0,76,0.00,,,0.00,Rainwise IP-100,2013-02-18 11:40:00,
2013-02-18 06:45:00,4.0,0.0,30.07,NNE,22,2.0,16.0,76,0.00,,,0.00,Rainwise IP-100,2013-02-18 11:45:00,
2013-02-18 06:50:00,4.0,0.0,30.07,North,360,1.0,12.0,75,0.00,,,0.00,Rainwise IP-100,2013-02-18 11:50:00,
2013-02-18 06:55:00,4.0,0.0,30.08,North,360,0.0,13.0,74,0.00,,,0.00,Rainwise IP-100,2013-02-18 11:55:00,
2013-02-18 07:00:00,4.0,0.0,30.08,NW,315,10.0,12.0,74,0.00,,,0.00,Rainwise IP-100,2013-02-18 12:00:00,
2013-02-18 07:05:00,4.0,0.0,30.08,West,270,4.0,20.0,74,0.00,,,0.00,Rainwise IP-100,2013-02-18 12:05:00,
2013-02-18 07:10:00,4.0,0.0,30.08,North,360,3.0,12.0,74,0.00,,,0.00,Rainwise IP-100,2013-02-18 12:10:00,
2013-02-18 07:15:00,4.0,0.0,30.09,West,270,1.0,7.0,74,0.00,,,0.00,Rainwise IP-100,2013-02-18 12:15:00,
2013-02-18 07:20:00,4.0,0.0,30.09,West,270,7.0,8.0,73,0.00,,,0.00,Rainwise IP-100,2013-02-18 12:20:00,
2013-02-18 07:25:00,4.0,0.0,30.09,ENE,67,6.0,11.0,73,0.00,,,0.00,Rainwise IP-100,2013-02-18 12:25:00,
2013-02-18 07:30:00,5.0,0.0,30.09,West,270,4.0,14.0,73,0.00,,,0.00,Rainwise IP-100,2013-02-18 12:30:00,
2013-02-18 07:35:00,5.0,0.0,30.09,West,270,4.0,12.0,73,0.00,,,0.00,Rainwise IP-100,2013-02-18 12:35:00,
2013-02-18 07:40:00,5.0,0.0,30.09,WSW,247,5.0,13.0,73,0.00,,,0.00,Rainwise IP-100,2013-02-18 12:40:00,
2013-02-18 07:45:00,6.0,0.0,30.10,NNW,337,1.0,12.0,72,0.00,,,0.00,Rainwise IP-100,2013-02-18 12:45:00,
2013-02-18 07:50:00,6.0,0.0,30.10,NW,315,1.0,14.0,71,0.00,,,0.00,Rainwise IP-100,2013-02-18 12:50:00,
2013-02-18 07:55:00,6.0,0.0,30.09,South,180,6.0,10.0,71,0.00,,,0.00,Rainwise IP-100,2013-02-18 12:55:00,
2013-02-18 08:00:00,6.0,0.0,30.09,West,270,11.0,24.0,70,0.00,,,0.00,Rainwise IP-100,2013-02-18 13:00:00,
2013-02-18 08:05:00,6.0,0.0,30.10,NNW,337,3.0,17.0,70,0.00,,,0.00,Rainwise IP-100,2013-02-18 13:05:00,
2013-02-18 08:10:00,6.0,0.0,30.10,NE,45,10.0,17.0,70,0.00,,,0.00,Rainwise IP-100,2013-02-18 13:10:00,
2013-02-18 08:15:00,6.0,0.0,30.10,SW,225,11.0,15.0,70,0.00,,,0.00,Rainwise IP-100,2013-02-18 13:15:00,
2013-02-18 08:20:00,6.0,0.0,30.10,North,360,2.0,17.0,70,0.00,,,0.00,Rainwise IP-100,2013-02-18 13:20:00,
2013-02-18 08:25:00,6.0,0.0,30.10,West,270,9.0,17.0,70,0.00,,,0.00,Rainwise IP-100,2013-02-18 13:25:00,
2013-02-18 08:30:00,6.0,0.0,30.10,NNW,337,4.0,18.0,69,0.00,,,0.00,Rainwise IP-100,2013-02-18 13:30:00,
2013-02-18 08:35:00,6.0,0.0,30.11,WSW,247,6.0,16.0,69,0.00,,,0.00,Rainwise IP-100,2013-02-18 13:35:00,
2013-02-18 08:40:00,7.0,0.0,30.11,West,270,4.0,15.0,68,0.00,,,0.00,Rainwise IP-100,2013-02-18 13:40:00,
2013-02-18 08:45:00,7.0,0.0,30.11,West,270,7.0,13.0,68,0.00,,,0.00,Rainwise IP-100,2013-02-18 13:45:00,
2013-02-18 08:50:00,7.0,0.0,30.11,NE,45,8.0,19.0,67,0.00,,,0.00,Rainwise IP-100,2013-02-18 13:50:00,
2013-02-18 08:55:00,7.0,0.0,30.11,WSW,247,7.0,14.0,66,0.00,,,0.00,Rainwise IP-100,2013-02-18 13:55:00,
2013-02-18 09:00:00,7.0,0.0,30.11,West,270,7.0,18.0,66,0.00,,,0.00,Rainwise IP-100,2013-02-18 14:00:00,
2013-02-18 09:05:00,8.0,0.0,30.12,West,270,7.0,12.0,66,0.00,,,0.00,Rainwise IP-100,2013-02-18 14:05:00,
2013-02-18 09:10:00,8.0,0.0,30.12,West,270,10.0,12.0,66,0.00,,,0.00,Rainwise IP-100,2013-02-18 14:10:00,
2013-02-18 09:15:00,8.0,0.0,30.11,West,270,17.0,19.0,65,0.00,,,0.00,Rainwise IP-100,2013-02-18 14:15:00,
2013-02-18 09:20:00,9.0,0.0,30.11,West,270,6.0,17.0,64,0.00,,,0.00,Rainwise IP-100,2013-02-18 14:20:00,
2013-02-18 09:25:00,10.0,0.0,30.10,West,270,7.0,11.0,63,0.00,,,0.00,Rainwise IP-100,2013-02-18 14:25:00,
2013-02-18 09:30:00,10.0,0.0,30.10,West,270,9.0,13.0,62,0.00,,,0.00,Rainwise IP-100,2013-02-18 14:30:00,
2013-02-18 09:35:00,10.0,0.0,30.11,North,360,1.0,18.0,62,0.00,,,0.00,Rainwise IP-100,2013-02-18 14:35:00,
2013-02-18 09:40:00,10.0,0.0,30.11,WNW,292,6.0,13.0,61,0.00,,,0.00,Rainwise IP-100,2013-02-18 14:40:00,
2013-02-18 09:45:00,10.0,0.0,30.10,West,270,7.0,16.0,60,0.00,,,0.00,Rainwise IP-100,2013-02-18 14:45:00,
2013-02-18 09:50:00,11.0,0.0,30.10,West,270,7.0,15.0,59,0.00,,,0.00,Rainwise IP-100,2013-02-18 14:50:00,
2013-02-18 09:55:00,11.0,0.0,30.10,NW,315,7.0,15.0,59,0.00,,,0.00,Rainwise IP-100,2013-02-18 14:55:00,
2013-02-18 10:00:00,11.0,0.0,30.10,West,270,12.0,15.0,58,0.00,,,0.00,Rainwise IP-100,2013-02-18 15:00:00,
2013-02-18 10:05:00,12.0,4.0,30.10,NW,315,13.0,23.0,57,0.00,,,0.00,Rainwise IP-100,2013-02-18 15:05:00,
2013-02-18 10:10:00,12.0,4.0,30.10,West,270,10.0,19.0,57,0.00,,,0.00,Rainwise IP-100,2013-02-18 15:10:00,
2013-02-18 10:15:00,12.0,0.0,30.10,WNW,292,1.0,21.0,56,0.00,,,0.00,Rainwise IP-100,2013-02-18 15:15:00,
2013-02-18 10:20:00,12.0,0.0,30.10,West,270,8.0,19.0,55,0.00,,,0.00,Rainwise IP-100,2013-02-18 15:20:00,
2013-02-18 10:25:00,12.0,0.0,30.11,West,270,5.0,17.0,53,0.00,,,0.00,Rainwise IP-100,2013-02-18 15:25:00,
2013-02-18 10:30:00,13.0,0.0,30.11,WNW,292,6.0,23.0,54,0.00,,,0.00,Rainwise IP-100,2013-02-18 15:30:00,
2013-02-18 10:35:00,13.0,0.0,30.10,West,270,5.0,21.0,55,0.00,,,0.00,Rainwise IP-100,2013-02-18 15:35:00,
2013-02-18 10:40:00,13.0,0.0,30.10,West,270,16.0,20.0,53,0.00,,,0.00,Rainwise IP-100,2013-02-18 15:40:00,
2013-02-18 10:45:00,13.0,0.0,30.10,West,270,7.0,21.0,53,0.00,,,0.00,Rainwise IP-100,2013-02-18 15:45:00,
2013-02-18 10:50:00,14.0,0.0,30.10,West,270,10.0,17.0,51,0.00,,,0.00,Rainwise IP-100,2013-02-18 15:50:00,
2013-02-18 10:55:00,13.0,0.0,30.10,WNW,292,11.0,20.0,52,0.00,,,0.00,Rainwise IP-100,2013-02-18 15:55:00,
2013-02-18 11:00:00,14.0,0.0,30.10,West,270,12.0,19.0,49,0.00,,,0.00,Rainwise IP-100,2013-02-18 16:00:00,
2013-02-18 11:05:00,13.0,0.0,30.10,West,270,8.0,20.0,50,0.00,,,0.00,Rainwise IP-100,2013-02-18 16:05:00,
2013-02-18 11:10:00,14.0,0.0,30.10,West,270,15.0,19.0,49,0.00,,,0.00,Rainwise IP-100,2013-02-18 16:10:00,
2013-02-18 11:15:00,14.0,0.0,30.10,West,270,16.0,17.0,48,0.00,,,0.00,Rainwise IP-100,2013-02-18 16:15:00,
2013-02-18 11:20:00,15.0,0.0,30.10,West,270,7.0,16.0,48,0.00,,,0.00,Rainwise IP-100,2013-02-18 16:20:00,
2013-02-18 11:25:00,15.0,0.0,30.10,West,270,6.0,13.0,47,0.00,,,0.00,Rainwise IP-100,2013-02-18 16:25:00,
2013-02-18 11:30:00,15.0,0.0,30.10,West,270,7.0,20.0,46,0.00,,,0.00,Rainwise IP-100,2013-02-18 16:30:00,
2013-02-18 11:35:00,16.0,0.0,30.10,West,270,6.0,17.0,43,0.00,,,0.00,Rainwise IP-100,2013-02-18 16:35:00,
2013-02-18 11:40:00,16.0,0.0,30.10,West,270,11.0,19.0,43,0.00,,,0.00,Rainwise IP-100,2013-02-18 16:40:00,
2013-02-18 11:45:00,16.0,0.0,30.09,ESE,112,3.0,16.0,42,0.00,,,0.00,Rainwise IP-100,2013-02-18 16:45:00,
2013-02-18 11:50:00,16.0,0.0,30.09,WNW,292,10.0,22.0,42,0.00,,,0.00,Rainwise IP-100,2013-02-18 16:50:00,
2013-02-18 11:55:00,16.0,0.0,30.09,NE,45,8.0,18.0,42,0.00,,,0.00,Rainwise IP-100,2013-02-18 16:55:00,
2013-02-18 12:00:00,16.0,0.0,30.09,WNW,292,18.0,21.0,40,0.00,,,0.00,Rainwise IP-100,2013-02-18 17:00:00,
2013-02-18 12:05:00,16.0,0.0,30.09,West,270,14.0,18.0,39,0.00,,,0.00,Rainwise IP-100,2013-02-18 17:05:00,
2013-02-18 12:10:00,17.0,0.0,30.09,SE,135,7.0,24.0,39,0.00,,,0.00,Rainwise IP-100,2013-02-18 17:10:00,
2013-02-18 12:15:00,17.0,0.0,30.08,West,270,7.0,20.0,39,0.00,,,0.00,Rainwise IP-100,2013-02-18 17:15:00,
2013-02-18 12:20:00,17.0,0.0,30.08,South,180,5.0,17.0,36,0.00,,,0.00,Rainwise IP-100,2013-02-18 17:20:00,
2013-02-18 12:25:00,18.0,0.0,30.08,North,360,5.0,19.0,37,0.00,,,0.00,Rainwise IP-100,2013-02-18 17:25:00,
2013-02-18 12:30:00,18.0,-6.0,30.08,West,270,10.0,21.0,34,0.00,,,0.00,Rainwise IP-100,2013-02-18 17:30:00,
2013-02-18 12:35:00,18.0,0.0,30.08,West,270,15.0,23.0,36,0.00,,,0.00,Rainwise IP-100,2013-02-18 17:35:00,
2013-02-18 12:40:00,18.0,0.0,30.08,West,270,7.0,15.0,35,0.00,,,0.00,Rainwise IP-100,2013-02-18 17:40:00,
2013-02-18 12:45:00,19.0,0.0,30.07,West,270,5.0,19.0,34,0.00,,,0.00,Rainwise IP-100,2013-02-18 17:45:00,
2013-02-18 12:50:00,18.0,-6.0,30.07,West,270,6.0,20.0,34,0.00,,,0.00,Rainwise IP-100,2013-02-18 17:50:00,
2013-02-18 12:55:00,19.0,0.0,30.08,NE,45,1.0,19.0,34,0.00,,,0.00,Rainwise IP-100,2013-02-18 17:55:00,
2013-02-18 13:00:00,19.0,0.0,30.08,WNW,292,2.0,12.0,34,0.00,,,0.00,Rainwise IP-100,2013-02-18 18:00:00,
2013-02-18 13:05:00,19.0,0.0,30.07,NE,45,6.0,15.0,34,0.00,,,0.00,Rainwise IP-100,2013-02-18 18:05:00,
2013-02-18 13:10:00,20.0,0.0,30.07,WNW,292,6.0,17.0,34,0.00,,,0.00,Rainwise IP-100,2013-02-18 18:10:00,
2013-02-18 13:15:00,20.0,0.0,30.07,WNW,292,11.0,17.0,33,0.00,,,0.00,Rainwise IP-100,2013-02-18 18:15:00,
2013-02-18 13:20:00,20.0,0.0,30.07,West,270,7.0,20.0,33,0.00,,,0.00,Rainwise IP-100,2013-02-18 18:20:00,
2013-02-18 13:22:00,20.0,0.0,30.07,WNW,292,10.0,20.0,33,0.00,,,0.00,Rainwise IP-100,2013-02-18 18:22:00,
2013-02-18 13:25:00,20.0,-6.0,30.07,NE,45,0.0,17.0,31,0.00,,,0.00,Rainwise IP-100,2013-02-18 18:25:00,
2013-02-18 13:30:00,20.0,-6.0,30.07,West,270,15.0,21.0,29,0.00,,,0.00,Rainwise IP-100,2013-02-18 18:30:00,
2013-02-18 13:35:00,20.0,-6.0,30.07,West,270,15.0,20.0,30,0.00,,,0.00,Rainwise IP-100,2013-02-18 18:35:00,
2013-02-18 13:40:00,20.0,-6.0,30.07,WNW,292,13.0,20.0,29,0.00,,,0.00,Rainwise IP-100,2013-02-18 18:40:00,
2013-02-18 13:45:00,21.0,-6.0,30.07,West,270,10.0,16.0,29,0.00,,,0.00,Rainwise IP-100,2013-02-18 18:45:00,
2013-02-18 13:50:00,21.0,-6.0,30.07,West,270,9.0,18.0,30,0.00,,,0.00,Rainwise IP-100,2013-02-18 18:50:00,
2013-02-18 13:55:00,20.0,-6.0,30.06,West,270,19.0,22.0,27,0.00,,,0.00,Rainwise IP-100,2013-02-18 18:55:00,
2013-02-18 14:00:00,21.0,-6.0,30.06,West,270,7.0,23.0,28,0.00,,,0.00,Rainwise IP-100,2013-02-18 19:00:00,
2013-02-18 14:05:00,21.0,-6.0,30.06,NW,315,3.0,22.0,28,0.00,,,0.00,Rainwise IP-100,2013-02-18 19:05:00,
2013-02-18 14:10:00,21.0,-6.0,30.06,West,270,13.0,20.0,28,0.00,,,0.00,Rainwise IP-100,2013-02-18 19:10:00,
2013-02-18 14:15:00,21.0,-6.0,30.06,West,270,15.0,18.0,28,0.00,,,0.00,Rainwise IP-100,2013-02-18 19:15:00,
2013-02-18 14:20:00,21.0,-6.0,30.06,West,270,16.0,22.0,28,0.00,,,0.00,Rainwise IP-100,2013-02-18 19:20:00,
2013-02-18 14:25:00,21.0,-6.0,30.07,West,270,10.0,27.0,27,0.00,,,0.00,Rainwise IP-100,2013-02-18 19:25:00,
2013-02-18 14:30:00,21.0,-6.0,30.07,WNW,292,10.0,18.0,28,0.00,,,0.00,Rainwise IP-100,2013-02-18 19:30:00,
2013-02-18 14:35:00,21.0,-6.0,30.07,WNW,292,9.0,17.0,27,0.00,,,0.00,Rainwise IP-100,2013-02-18 19:35:00,
2013-02-18 14:40:00,22.0,-6.0,30.07,West,270,2.0,19.0,27,0.00,,,0.00,Rainwise IP-100,2013-02-18 19:40:00,
2013-02-18 14:45:00,21.0,-6.0,30.07,WNW,292,12.0,22.0,27,0.00,,,0.00,Rainwise IP-100,2013-02-18 19:45:00,
2013-02-18 14:50:00,22.0,-6.0,30.07,North,360,2.0,20.0,27,0.00,,,0.00,Rainwise IP-100,2013-02-18 19:50:00,
2013-02-18 14:55:00,22.0,-6.0,30.08,West,270,6.0,19.0,27,0.00,,,0.00,Rainwise IP-100,2013-02-18 19:55:00,
2013-02-18 15:00:00,22.0,-6.0,30.08,West,270,8.0,19.0,26,0.00,,,0.00,Rainwise IP-100,2013-02-18 20:00:00,
2013-02-18 15:05:00,23.0,-6.0,30.08,NW,315,1.0,11.0,27,0.00,,,0.00,Rainwise IP-100,2013-02-18 20:05:00,
2013-02-18 15:10:00,23.0,-6.0,30.08,NE,45,6.0,13.0,27,0.00,,,0.00,Rainwise IP-100,2013-02-18 20:10:00,
2013-02-18 15:15:00,23.0,-6.0,30.08,West,270,6.0,15.0,26,0.00,,,0.00,Rainwise IP-100,2013-02-18 20:15:00,
2013-02-18 15:20:00,23.0,-6.0,30.08,NW,315,2.0,13.0,29,0.00,,,0.00,Rainwise IP-100,2013-02-18 20:20:00,
2013-02-18 15:25:00,23.0,-6.0,30.08,West,270,7.0,9.0,26,0.00,,,0.00,Rainwise IP-100,2013-02-18 20:25:00,
2013-02-18 15:30:00,23.0,-6.0,30.08,East,90,3.0,18.0,27,0.00,,,0.00,Rainwise IP-100,2013-02-18 20:30:00,
2013-02-18 15:35:00,23.0,-6.0,30.08,West,270,3.0,13.0,26,0.00,,,0.00,Rainwise IP-100,2013-02-18 20:35:00,
2013-02-18 15:40:00,23.0,-6.0,30.08,West,270,2.0,12.0,26,0.00,,,0.00,Rainwise IP-100,2013-02-18 20:40:00,
2013-02-18 15:45:00,23.0,-6.0,30.09,West,270,1.0,9.0,27,0.00,,,0.00,Rainwise IP-100,2013-02-18 20:45:00,
2013-02-18 15:50:00,23.0,-6.0,30.09,WNW,292,4.0,12.0,27,0.00,,,0.00,Rainwise IP-100,2013-02-18 20:50:00,
2013-02-18 15:55:00,23.0,-6.0,30.09,West,270,6.0,10.0,26,0.00,,,0.00,Rainwise IP-100,2013-02-18 20:55:00,
2013-02-18 16:00:00,23.0,-6.0,30.09,West,270,7.0,15.0,26,0.00,,,0.00,Rainwise IP-100,2013-02-18 21:00:00,
2013-02-18 16:05:00,22.0,-6.0,30.09,West,270,9.0,13.0,26,0.00,,,0.00,Rainwise IP-100,2013-02-18 21:05:00,
2013-02-18 16:10:00,23.0,-6.0,30.09,West,270,6.0,12.0,27,0.00,,,0.00,Rainwise IP-100,2013-02-18 21:10:00,
2013-02-18 16:15:00,22.0,-6.0,30.10,West,270,4.0,12.0,26,0.00,,,0.00,Rainwise IP-100,2013-02-18 21:15:00,
2013-02-18 16:20:00,22.0,-6.0,30.10,NE,45,6.0,12.0,26,0.00,,,0.00,Rainwise IP-100,2013-02-18 21:20:00,
2013-02-18 16:25:00,22.0,-6.0,30.11,West,270,1.0,11.0,26,0.00,,,0.00,Rainwise IP-100,2013-02-18 21:25:00,
2013-02-18 16:30:00,22.0,-6.0,30.11,ENE,67,4.0,7.0,27,0.00,,,0.00,Rainwise IP-100,2013-02-18 21:30:00,
2013-02-18 16:35:00,22.0,-6.0,30.10,ENE,67,2.0,15.0,27,0.00,,,0.00,Rainwise IP-100,2013-02-18 21:35:00,
2013-02-18 16:40:00,21.0,-6.0,30.10,East,90,3.0,7.0,29,0.00,,,0.00,Rainwise IP-100,2013-02-18 21:40:00,
2013-02-18 16:45:00,21.0,-6.0,30.11,WNW,292,6.0,16.0,28,0.00,,,0.00,Rainwise IP-100,2013-02-18 21:45:00,
2013-02-18 16:50:00,21.0,-6.0,30.11,NE,45,6.0,10.0,28,0.00,,,0.00,Rainwise IP-100,2013-02-18 21:50:00,
2013-02-18 16:55:00,20.0,-6.0,30.11,East,90,1.0,10.0,30,0.00,,,0.00,Rainwise IP-100,2013-02-18 21:55:00,
2013-02-18 17:00:00,20.0,-6.0,30.11,NE,45,1.0,7.0,31,0.00,,,0.00,Rainwise IP-100,2013-02-18 22:00:00,
2013-02-18 17:05:00,20.0,-6.0,30.12,NW,315,2.0,5.0,30,0.00,,,0.00,Rainwise IP-100,2013-02-18 22:05:00,
2013-02-18 17:10:00,19.0,0.0,30.12,NNE,22,3.0,6.0,32,0.00,,,0.00,Rainwise IP-100,2013-02-18 22:10:00,
2013-02-18 17:15:00,19.0,0.0,30.13,East,90,3.0,7.0,32,0.00,,,0.00,Rainwise IP-100,2013-02-18 22:15:00,
2013-02-18 17:20:00,19.0,0.0,30.13,NW,315,0.0,7.0,33,0.00,,,0.00,Rainwise IP-100,2013-02-18 22:20:00,
2013-02-18 17:25:00,19.0,0.0,30.13,NW,315,1.0,12.0,33,0.00,,,0.00,Rainwise IP-100,2013-02-18 22:25:00,
2013-02-18 17:30:00,19.0,0.0,30.13,WNW,292,0.0,4.0,32,0.00,,,0.00,Rainwise IP-100,2013-02-18 22:30:00,
2013-02-18 17:35:00,18.0,-6.0,30.14,North,360,0.0,2.0,33,0.00,,,0.00,Rainwise IP-100,2013-02-18 22:35:00,
2013-02-18 17:40:00,18.0,-6.0,30.14,North,360,0.0,5.0,33,0.00,,,0.00,Rainwise IP-100,2013-02-18 22:40:00,
2013-02-18 17:45:00,17.0,-6.0,30.14,North,360,1.0,2.0,34,0.00,,,0.00,Rainwise IP-100,2013-02-18 22:45:00,
2013-02-18 17:50:00,17.0,0.0,30.14,North,360,1.0,4.0,36,0.00,,,0.00,Rainwise IP-100,2013-02-18 22:50:00,
2013-02-18 17:55:00,17.0,0.0,30.14,North,360,2.0,6.0,36,0.00,,,0.00,Rainwise IP-100,2013-02-18 22:55:00,
2013-02-18 18:00:00,17.0,0.0,30.14,NW,315,0.0,7.0,35,0.00,,,0.00,Rainwise IP-100,2013-02-18 23:00:00,
2013-02-18 18:05:00,17.0,-6.0,30.14,NE,45,5.0,5.0,34,0.00,,,0.00,Rainwise IP-100,2013-02-18 23:05:00,
2013-02-18 18:10:00,17.0,0.0,30.14,NE,45,1.0,9.0,36,0.00,,,0.00,Rainwise IP-100,2013-02-18 23:10:00,
2013-02-18 18:15:00,16.0,0.0,30.15,East,90,5.0,5.0,39,0.00,,,0.00,Rainwise IP-100,2013-02-18 23:15:00,
2013-02-18 18:20:00,16.0,0.0,30.15,NW,315,2.0,6.0,39,0.00,,,0.00,Rainwise IP-100,2013-02-18 23:20:00,
2013-02-18 18:25:00,16.0,-6.0,30.15,WNW,292,1.0,6.0,36,0.00,,,0.00,Rainwise IP-100,2013-02-18 23:25:00,
2013-02-18 18:30:00,16.0,-6.0,30.15,NE,45,6.0,6.0,36,0.00,,,0.00,Rainwise IP-100,2013-02-18 23:30:00,
2013-02-18 18:35:00,16.0,-6.0,30.15,NW,315,2.0,6.0,36,0.00,,,0.00,Rainwise IP-100,2013-02-18 23:35:00,
2013-02-18 18:40:00,17.0,-6.0,30.15,West,270,3.0,6.0,33,0.00,,,0.00,Rainwise IP-100,2013-02-18 23:40:00,
2013-02-18 18:45:00,17.0,-6.0,30.16,West,270,0.0,5.0,33,0.00,,,0.00,Rainwise IP-100,2013-02-18 23:45:00,
2013-02-18 18:50:00,16.0,-6.0,30.16,West,270,1.0,2.0,35,0.00,,,0.00,Rainwise IP-100,2013-02-18 23:50:00,
2013-02-18 18:55:00,16.0,-6.0,30.16,West,270,0.0,2.0,35,0.00,,,0.00,Rainwise IP-100,2013-02-18 23:55:00,
2013-02-18 19:00:00,15.0,-6.0,30.16,West,270,0.0,1.0,37,0.00,,,0.00,Rainwise IP-100,2013-02-19 00:00:00,
2013-02-18 19:05:00,15.0,0.0,30.17,West,270,0.0,1.0,41,0.00,,,0.00,Rainwise IP-100,2013-02-19 00:05:00,
2013-02-18 19:10:00,14.0,-6.0,30.17,West,270,0.0,1.0,42,0.00,,,0.00,Rainwise IP-100,2013-02-19 00:10:00,
2013-02-18 19:15:00,14.0,-6.0,30.17,West,270,3.0,4.0,39,0.00,,,0.00,Rainwise IP-100,2013-02-19 00:15:00,
2013-02-18 19:20:00,14.0,-6.0,30.17,West,270,0.0,5.0,40,0.00,,,0.00,Rainwise IP-100,2013-02-19 00:20:00,
2013-02-18 19:25:00,15.0,-6.0,30.17,West,270,3.0,4.0,37,0.00,,,0.00,Rainwise IP-100,2013-02-19 00:25:00,
2013-02-18 19:30:00,14.0,-6.0,30.17,West,270,0.0,5.0,42,0.00,,,0.00,Rainwise IP-100,2013-02-19 00:30:00,
2013-02-18 19:35:00,14.0,-6.0,30.17,West,270,0.0,1.0,42,0.00,,,0.00,Rainwise IP-100,2013-02-19 00:35:00,
2013-02-18 19:40:00,13.0,-6.0,30.17,West,270,2.0,4.0,42,0.00,,,0.00,Rainwise IP-100,2013-02-19 00:40:00,
2013-02-18 19:45:00,14.0,-6.0,30.17,West,270,0.0,4.0,41,0.00,,,0.00,Rainwise IP-100,2013-02-19 00:45:00,
2013-02-18 19:50:00,13.0,-6.0,30.17,West,270,0.0,1.0,43,0.00,,,0.00,Rainwise IP-100,2013-02-19 00:50:00,
2013-02-18 19:54:00,13.0,0.0,30.17,West,270,0.0,1.0,44,0.00,,,0.00,Rainwise IP-100,2013-02-19 00:54:00,
2013-02-18 19:55:00,13.0,0.0,30.17,West,270,0.0,1.0,44,0.00,,,0.00,Rainwise IP-100,2013-02-19 00:55:00,
2013-02-18 20:00:00,13.0,0.0,30.17,West,270,0.0,2.0,44,0.00,,,0.00,Rainwise IP-100,2013-02-19 01:00:00,
2013-02-18 20:05:00,13.0,-6.0,30.18,NE,45,0.0,5.0,42,0.00,,,0.00,Rainwise IP-100,2013-02-19 01:05:00,
2013-02-18 20:10:00,14.0,-6.0,30.18,NE,45,0.0,1.0,42,0.00,,,0.00,Rainwise IP-100,2013-02-19 01:10:00,
2013-02-18 20:15:00,14.0,-6.0,30.17,NE,45,2.0,2.0,41,0.00,,,0.00,Rainwise IP-100,2013-02-19 01:15:00,
2013-02-18 20:20:00,14.0,-6.0,30.17,NE,45,0.0,3.0,42,0.00,,,0.00,Rainwise IP-100,2013-02-19 01:20:00,
2013-02-18 20:25:00,14.0,-6.0,30.17,NNE,22,5.0,5.0,42,0.00,,,0.00,Rainwise IP-100,2013-02-19 01:25:00,
2013-02-18 20:30:00,13.0,-6.0,30.17,NNW,337,0.0,5.0,43,0.00,,,0.00,Rainwise IP-100,2013-02-19 01:30:00,
2013-02-18 20:35:00,13.0,0.0,30.18,NNW,337,0.0,1.0,44,0.00,,,0.00,Rainwise IP-100,2013-02-19 01:35:00,
2013-02-18 20:40:00,13.0,-6.0,30.18,NNW,337,0.0,2.0,43,0.00,,,0.00,Rainwise IP-100,2013-02-19 01:40:00,
2013-02-18 20:45:00,12.0,0.0,30.18,East,90,0.0,3.0,48,0.00,,,0.00,Rainwise IP-100,2013-02-19 01:45:00,
2013-02-18 20:50:00,12.0,0.0,30.18,West,270,4.0,5.0,46,0.00,,,0.00,Rainwise IP-100,2013-02-19 01:50:00,
2013-02-18 20:55:00,13.0,0.0,30.18,WNW,292,4.0,6.0,45,0.00,,,0.00,Rainwise IP-100,2013-02-19 01:55:00,
2013-02-18 21:00:00,13.0,0.0,30.18,WNW,292,2.0,7.0,46,0.00,,,0.00,Rainwise IP-100,2013-02-19 02:00:00,
2013-02-18 21:05:00,13.0,0.0,30.17,WNW,292,4.0,6.0,46,0.00,,,0.00,Rainwise IP-100,2013-02-19 02:05:00,
2013-02-18 21:10:00,12.0,0.0,30.17,WNW,292,2.0,6.0,49,0.00,,,0.00,Rainwise IP-100,2013-02-19 02:10:00,
2013-02-18 21:15:00,12.0,0.0,30.18,WNW,292,2.0,3.0,48,0.00,,,0.00,Rainwise IP-100,2013-02-19 02:15:00,
2013-02-18 21:20:00,11.0,0.0,30.18,WNW,292,0.0,2.0,55,0.00,,,0.00,Rainwise IP-100,2013-02-19 02:20:00,
2013-02-18 21:25:00,10.0,0.0,30.19,WNW,292,2.0,2.0,55,0.00,,,0.00,Rainwise IP-100,2013-02-19 02:25:00,
2013-02-18 21:30:00,10.0,0.0,30.19,WNW,292,0.0,2.0,53,0.00,,,0.00,Rainwise IP-100,2013-02-19 02:30:00,
2013-02-18 21:35:00,10.0,0.0,30.19,WNW,292,0.0,1.0,55,0.00,,,0.00,Rainwise IP-100,2013-02-19 02:35:00,
2013-02-18 21:40:00,9.0,0.0,30.19,WNW,292,0.0,1.0,55,0.00,,,0.00,Rainwise IP-100,2013-02-19 02:40:00,
2013-02-18 21:45:00,9.0,0.0,30.19,WNW,292,0.0,1.0,52,0.00,,,0.00,Rainwise IP-100,2013-02-19 02:45:00,
2013-02-18 21:50:00,10.0,0.0,30.19,NE,45,0.0,5.0,52,0.00,,,0.00,Rainwise IP-100,2013-02-19 02:50:00,
2013-02-18 21:55:00,10.0,0.0,30.18,WNW,292,6.0,6.0,50,0.00,,,0.00,Rainwise IP-100,2013-02-19 02:55:00,
2013-02-18 22:00:00,11.0,-6.0,30.18,West,270,6.0,6.0,49,0.00,,,0.00,Rainwise IP-100,2013-02-19 03:00:00,
2013-02-18 22:05:00,11.0,0.0,30.18,West,270,2.0,6.0,50,0.00,,,0.00,Rainwise IP-100,2013-02-19 03:05:00,
2013-02-18 22:08:00,11.0,0.0,30.18,West,270,1.0,6.0,51,0.00,,,0.00,Rainwise IP-100,2013-02-19 03:08:00,
2013-02-18 22:13:00,10.0,0.0,30.18,West,270,1.0,4.0,51,0.00,,,0.00,Rainwise IP-100,2013-02-19 03:13:00,
2013-02-18 22:18:00,10.0,0.0,30.18,West,270,3.0,4.0,51,0.00,,,0.00,Rainwise IP-100,2013-02-19 03:18:00,
2013-02-18 22:23:00,10.0,0.0,30.18,West,270,2.0,4.0,52,0.00,,,0.00,Rainwise IP-100,2013-02-19 03:23:00,
2013-02-18 22:28:00,10.0,0.0,30.18,West,270,0.0,2.0,54,0.00,,,0.00,Rainwise IP-100,2013-02-19 03:28:00,
2013-02-18 22:33:00,9.0,0.0,30.18,West,270,0.0,0.0,55,0.00,,,0.00,Rainwise IP-100,2013-02-19 03:33:00,
2013-02-18 22:38:00,8.0,0.0,30.18,West,270,0.0,0.0,61,0.00,,,0.00,Rainwise IP-100,2013-02-19 03:38:00,
2013-02-18 22:43:00,8.0,0.0,30.18,West,270,0.0,0.0,62,0.00,,,0.00,Rainwise IP-100,2013-02-19 03:43:00,
2013-02-18 22:48:00,7.0,0.0,30.18,West,270,1.0,2.0,63,0.00,,,0.00,Rainwise IP-100,2013-02-19 03:48:00,
2013-02-18 22:53:00,7.0,0.0,30.18,West,270,0.0,2.0,64,0.00,,,0.00,Rainwise IP-100,2013-02-19 03:53:00,
2013-02-18 22:55:00,7.0,0.0,30.18,West,270,1.0,1.0,65,0.00,,,0.00,Rainwise IP-100,2013-02-19 03:55:00,
2013-02-18 23:00:00,7.0,0.0,30.18,West,270,0.0,2.0,64,0.00,,,0.00,Rainwise IP-100,2013-02-19 04:00:00,
2013-02-18 23:05:00,7.0,0.0,30.18,West,270,0.0,1.0,65,0.00,,,0.00,Rainwise IP-100,2013-02-19 04:05:00,
2013-02-18 23:10:00,7.0,0.0,30.18,West,270,0.0,1.0,65,0.00,,,0.00,Rainwise IP-100,2013-02-19 04:10:00,
2013-02-18 23:15:00,7.0,0.0,30.18,West,270,0.0,1.0,67,0.00,,,0.00,Rainwise IP-100,2013-02-19 04:15:00,
2013-02-18 23:20:00,6.0,0.0,30.18,West,270,0.0,1.0,69,0.00,,,0.00,Rainwise IP-100,2013-02-19 04:20:00,
2013-02-18 23:25:00,6.0,0.0,30.18,West,270,0.0,1.0,71,0.00,,,0.00,Rainwise IP-100,2013-02-19 04:25:00,
2013-02-18 23:30:00,6.0,0.0,30.18,West,270,0.0,2.0,72,0.00,,,0.00,Rainwise IP-100,2013-02-19 04:30:00,
2013-02-18 23:35:00,6.0,0.0,30.18,West,270,1.0,2.0,67,0.00,,,0.00,Rainwise IP-100,2013-02-19 04:35:00,
2013-02-18 23:40:00,6.0,0.0,30.18,West,270,1.0,2.0,67,0.00,,,0.00,Rainwise IP-100,2013-02-19 04:40:00,
2013-02-18 23:45:00,6.0,0.0,30.18,West,270,1.0,2.0,67,0.00,,,0.00,Rainwise IP-100,2013-02-19 04:45:00,
2013-02-18 23:50:00,6.0,0.0,30.18,West,270,0.0,1.0,68,0.00,,,0.00,Rainwise IP-100,2013-02-19 04:50:00,
2013-02-18 23:55:00,5.0,0.0,30.17,West,270,1.0,1.0,72,0.00,,,0.00,Rainwise IP-100,2013-02-19 04:55:00,